CAPE
0 0 0 0 0 0 0 0 0 0 0 0 0 0 0 0 0 0 0 0 0 0
0 0 0 0 0 0 0 0 0 0 0 0 0 0 0 0 0 0 0 0 0 0
0 0 0 0 0 0 0 0 0 0 0 0 0 0 0 0 0 0 0 0 0 0
0 0 0 0 0 0 0 0 0 0 0 0 0 0 0 0 0 0 0 0 0 0
0 0 0 0 0 0 0 0 0 0 0 0 0 0 0 0 0 0 0 0 0 0
0 0 0 0 0 0 0 0 0 0 0 0 0 0 0 0 0 0 0 0 0 0
0 0 0 0 0 0 0 0 0 0 0 0 0 0 0 0 0 0 0 0 0 0
0 0 0 0 0 0 0 0 0 0 0 0 0 0 0 0 0 0 0 0 0 0
0 0 0 0 0 0 0 0 0 0 0 0 0 0 0 0 0 0 0 0 0 0
0 0 0 0 0 0 0 0 0 0 0 0 0 0 0 0 0 0 0 0 0 0
0 0 0 0 0 0 0 0 0 0 0 0 0 0 0 0 0 0 0 0 0 0
0 0 0 0 0 0 0 0 0 0 0 0 0 0 0 0 0 0 0 0 0 0
0 0 0 0 0 0 0 0 0 0 0 0 0 0 0 0 0 0 0 0 0 0
0 0 0 0 0 0 0 0 0 0 0 0 0 0 0 0 0 0 0 0 0 0
CIN
-0 -0 -0 -0 -0 -0 -0 -0 -0 -0 -0 -0 -0 -0 -0 -0 -0 -0 -0 -0 -0 -0
-0 -0 -0 -0 -0 -0 -0 -0 -0 -0 -0 -0 -0 -0 -0 -0 -0 -0 -0 -0 -0 -0
-0 -0 -0 -0 -0 -0 -0 -0 -0 -0 -0 -0 -0 -0 -0 -0 -0 -0 -0 -0 -0 -0
-0 -0 -0 -0 -0 -0 -0 -0 -0 -0 -0 -0 -0 -0 -0 -0 -0 -0 -0 -0 -0 -0
-0 -0 -0 -0 -0 -0 -0 -0 -0 -0 -0 -0 -0 -0 -0 -0 -0 -0 -0 -0 -0 -0
-0 -0 -0 -0 -0 -0 -0 -0 -0 -0 -0 -0 -0 -0 -0 -0 -0 -0 -0 -0 -0 -0
-0 -0 -0 -0 -0 -0 -0 -0 -0 -0 -0 -0 -0 -0 -0 -0 -0 -0 -0 -0 -0 -0
-0 -0 -0 -0 -0 -0 -0 -0 -0 -0 -0 -0 -0 -0 -0 -0 -0 -0 -0 -0 -0 -0
-0 -0 -0 -0 -0 -0 -0 -0 -0 -0 -0 -0 -0 -0 -0 -0 -0 -0 -0 -0 -0 -0
-0 -0 -0 -0 -0 -0 -0 -0 -0 -0 -0 -0 -0 -0 -0 -0 -0 -0 -0 -0 -0 -0
-0 -0 -0 -0 -0 -0 -0 -0 -0 -0 -0 -0 -0 -0 -0 -0 -0 -0 -0 -0 -0 -0
-0 -0 -0 -0 -0 -0 -0 -0 -0 -0 -0 -0 -0 -0 -0 -0 -0 -0 -0 -0 -0 -0
-0 -0 -0 -0 -0 -0 -0 -0 -0 -0 -0 -0 -0 -0 -0 -0 -0 -0 -0 -0 -0 -0
-0 -0 -0 -0 -0 -0 -0 -0 -0 -0 -0 -0 -0 -0 -0 -0 -0 -0 -0 -0 -0 -0
Wind_Speed
19 20 22 24 25 27 29 31 30 30 28 27 25 23 22 23 23 22 23 23 23 23
19 21 22 23 26 29 30 30 30 30 30 29 27 26 25 25 24 24 24 24 24 25
18 21 23 25 28 28 29 30 31 30 30 30 29 28 26 26 25 25 25 25 26 26
21 22 24 26 27 28 29 29 30 30 30 30 30 29 29 28 27 27 27 27 28 28
22 23 25 26 27 27 28 28 29 30 30 30 30 30 30 30 29 29 29 30 30 30
23 24 25 26 26 26 27 29 29 30 30 31 31 30 30 30 31 31 30 30 31 31
23 23 24 25 26 27 28 29 30 30 30 31 31 31 31 31 31 31 31 31 31 32
23 23 25 26 27 28 29 30 31 32 32 32 32 32 32 32 32 32 32 33 33 32
24 25 26 27 28 29 31 31 31 32 32 32 31 31 32 32 32 31 32 35 35 34
25 26 27 27 27 28 29 29 29 30 31 31 31 32 32 32 31 31 32 33 35 35
26 26 25 26 26 27 26 27 29 30 31 32 32 33 33 33 32 32 33 34 35 36
25 25 26 26 26 26 27 28 29 30 31 32 33 33 33 33 33 34 34 34 35 35
23 24 25 25 26 26 26 27 29 30 30 31 33 34 34 34 34 36 36 36 35 35
23 24 24 25 25 27 28 30 31 33 34 35 36 37 38 37 37 38 40 40 39 36
Wind_Direction
307 311 314 317 320 322 323 324 327 329 331 331 330 327 326 326 325 324 324 324 324 324
310 312 315 319 321 321 324 326 327 328 328 329 329 327 324 323 322 322 322 321 321 320
313 316 317 319 320 323 325 326 326 327 328 329 329 329 326 324 322 321 320 320 319 318
315 317 320 321 323 324 325 327 328 329 330 330 330 329 327 325 323 320 319 318 317 316
319 320 321 322 323 325 327 329 329 330 330 329 329 328 326 324 323 320 318 316 315 314
320 321 322 324 326 328 328 328 329 329 328 328 327 326 325 323 321 319 317 316 314 313
322 323 325 326 327 327 328 327 327 327 327 326 326 325 324 322 321 319 318 317 315 313
325 325 325 325 326 326 325 325 324 324 324 324 323 323 322 321 320 319 317 316 316 315
324 324 324 324 324 324 324 324 324 323 323 323 324 323 322 321 320 319 318 316 315 314
323 323 323 324 325 325 325 326 326 325 325 324 324 324 323 322 321 320 319 318 317 315
325 325 326 327 327 328 328 328 327 326 325 325 324 323 322 321 321 319 318 317 316 314
327 327 328 328 328 329 328 328 327 326 326 325 324 324 323 321 320 318 318 318 318 316
329 329 329 330 329 329 329 328 327 326 327 326 324 324 323 321 320 317 317 318 317 316
330 330 330 330 330 328 327 326 325 323 322 321 321 320 320 318 317 313 313 313 313 314